Terminal Aerodrome Forecast
Issued by NWS

Home | Current Version | Previous Version | Graphics & Text | Print | Product List | Glossary On
Versions: 1 2 3 4 5 6 7 8 9 10 11 12 13 14 15 16 17 18 19
000
FTUS43 KGRB 281000 AAA
TAFATW
TAF AMD
KATW 281057Z 2811/2906 VRB03KT P6SM SCT012 BKN030
      TEMPO 2811/2815 5SM BR BKN010 BKN022
     FM281700 12006KT P6SM SCT040 BKN200
     FM282100 12008KT P6SM OVC080
     FM290200 11004KT 5SM -SHRA OVC040=

USA.gov is the U.S. government's official web portal to all federal, state and local government web resources and services.